Content
SEND FEEDBACK

Daily
Averages
Monthly
Summary
United States of America

ASATDAS, GUAM


Home > North America > United States > Guam
Elevation: 186 meters     Latitude: 13 35N     Longitude: 144 56E

WEATHER
 
SELECT A DAY
Number of Records: 208,860;   Date Range: 1/1/95 - 7/20/14
 
SHARE

PRINT THIS DATA

[ ← Previous Day ]
WEATHER ALMANAC - 18 AUGUST, 2013
[ Next Day → ]
[ °F ]   °C
Weather ElementAverageHighLow
Temperature27.8 °C31.1 °C (11:54 am)25.6 °C (2:54 am)
Dewpoint23.7 °C25 °C (6:54 am)22.2 °C (10:54 am)
Humidity79.1 %94 % (6:54 am)61 % (11:54 am)
Barometer1010.5 hPa1011.9 hPa (8:54 am)1008.8 hPa (3:54 pm)
Wind Speed6.1 km/h13 km/h (1:54 pm)
Weather ElementAverage
Visibility15.8 km
Wind DirectionENE (73.2 °)

Weather ElementTotal
Precipitation0.76 mm
Cooling Degree Days10.1 (Base 18.3)
Growing Degree Days18.4 (Base 10)
Averaged from 25 records on 18 August, 2013
WEATHER CONDITIONS BREAKOUT
WIND DIRECTION BREAKOUT
WEATHER BY HOUR - 18 AUGUST, 2013
[ °F ]   °C
Local TimeTemperatureDewpointHumidityBarometerVisibilityWind DirectionWind SpeedGust SpeedPrecipitationEventsConditions
1:54 AM26.1 °C23.9 °C88 %1010.2 hPa16.1 kmCalmClear
2:54 AM25.6 °C23.9 °C90 %1009.5 hPa16.1 kmSSE (160°)5.6 km/hScattered Clouds
3:07 AM26 °C24 °C89 %1010.2 hPa9.7 kmCalm0.25 mmRainLight Rain
3:35 AM26 °C24 °C89 %1010.2 hPa16.1 kmCalm0.25 mmScattered Clouds
3:54 AM26.1 °C24.4 °C90 %1009.5 hPa16.1 kmCalm0.25 mmClear
4:54 AM25.6 °C24.4 °C93 %1009.8 hPa16.1 kmCalmClear
5:54 AM26.1 °C24.4 °C90 %1010.2 hPa16.1 kmCalmScattered Clouds
6:54 AM26.1 °C25 °C94 %1010.8 hPa16.1 kmCalmClear
7:54 AM28.3 °C25 °C82 %1011.5 hPa16.1 kmCalmClear
8:54 AM28.9 °C23.9 °C74 %1011.9 hPa16.1 kmSSE (150°)7.4 km/hPartly Cloudy
9:54 AM30 °C22.8 °C65 %1011.9 hPa16.1 kmSE (130°)9.3 km/hScattered Clouds
10:54 AM30 °C22.2 °C63 %1011.5 hPa16.1 kmSSE (160°)11.1 km/hPartly Cloudy
11:54 AM31.1 °C22.8 °C61 %1010.8 hPa16.1 kmSE (140°)9.3 km/hPartly Cloudy
12:54 PM30.6 °C22.8 °C63 %1009.8 hPa16.1 kmVariable9.3 km/hPartly Cloudy
1:54 PM30.6 °C22.8 °C63 %1009.5 hPa16.1 kmSE (130°)13 km/hPartly Cloudy
2:54 PM31.1 °C22.8 °C61 %1009.1 hPa16.1 kmSE (130°)9.3 km/hPartly Cloudy
3:54 PM30.6 °C22.8 °C63 %1008.8 hPa16.1 kmEast (80°)11.1 km/hPartly Cloudy
4:54 PM29.4 °C22.8 °C67 %1009.1 hPa16.1 kmEast (80°)11.1 km/hMostly Cloudy
5:54 PM29.4 °C23.3 °C69 %1009.8 hPa16.1 kmEast (90°)9.3 km/hScattered Clouds
6:54 PM26.7 °C23.9 °C85 %1010.5 hPa16.1 kmEast (90°)11.1 km/h0 mmPartly Cloudy
7:54 PM26.1 °C24.4 °C90 %1010.8 hPa16.1 kmEast (100°)9.3 km/hClear
8:54 PM26.1 °C24.4 °C90 %1011.2 hPa16.1 kmEast (90°)9.3 km/hPartly Cloudy
9:54 PM26.7 °C23.9 °C85 %1011.2 hPa16.1 kmESE (110°)5.6 km/hClear
10:54 PM26.7 °C23.9 °C85 %1011.2 hPa16.1 kmEast (80°)5.6 km/hClear
11:54 PM26.1 °C23.9 °C88 %1010.5 hPa16.1 kmESE (110°)5.6 km/hClear
Hourly data recorded from PGUM, located 0 kilometers away from Asatdas, Guam







STORIES FROM OUR PARTNERS